This is the latest recevied weather packets stored in our database for station/object W2EH. If no packets are shown the sender has not sent any weather packets the latest 10 day(s).
| Time | Temp. | Humidity | Pressure | Rain* | Wind** | Luminosity | Snow |
|---|---|---|---|---|---|---|---|
| 1777342477 | 27.22° C | 80% | 1009.2 hPa | 0 mm | - | 0 W/m² | - |
| 1777342174 | 27.22° C | 79% | 1009.2 hPa | 0 mm | - | 0 W/m² | - |
| 1777341870 | 27.78° C | 79% | 1009.1 hPa | 0 mm | - | 0 W/m² | - |
| 1777341566 | 27.78° C | 78% | 1008.9 hPa | 0 mm | - | 0 W/m² | - |
| 1777341262 | 27.78° C | 78% | 1008.8 hPa | 0 mm | - | 0 W/m² | - |
| 1777340959 | 27.78° C | 77% | 1008.7 hPa | 0 mm | - | 0 W/m² | - |
| 1777340657 | 28.33° C | 76% | 1008.6 hPa | 0 mm | - | 0 W/m² | - |
| 1777340355 | 28.33° C | 75% | 1008.7 hPa | 0 mm | - | 0 W/m² | - |
| 1777340051 | 28.33° C | 75% | 1008.8 hPa | 0 mm | - | 0 W/m² | - |
| 1777339749 | 28.33° C | 75% | 1008.6 hPa | 0 mm | - | 0 W/m² | - |
| 1777339447 | 28.33° C | 75% | 1008.5 hPa | 0 mm | - | 0 W/m² | - |
| 1777339144 | 28.33° C | 75% | 1008.4 hPa | 0 mm | - | 0 W/m² | - |
| 1777338841 | 28.33° C | 74% | 1008.3 hPa | 0 mm | - | 0 W/m² | - |
| 1777338538 | 28.33° C | 75% | 1008.1 hPa | 0 mm | - | 1 W/m² | - |
| 1777338236 | 28.33° C | 75% | 1008.2 hPa | 0 mm | - | 2 W/m² | - |
| 1777337931 | 28.33° C | 74% | 1008.2 hPa | 0 mm | - | 3 W/m² | - |
| 1777337629 | 28.89° C | 73% | 1008.1 hPa | 0 mm | - | 4 W/m² | - |
| 1777337326 | 28.89° C | 72% | 1007.7 hPa | 0 mm | - | 7 W/m² | - |
| 1777337023 | 28.89° C | 72% | 1007.8 hPa | 0 mm | - | 10 W/m² | - |
| 1777336721 | 28.89° C | 71% | 1007.7 hPa | 0 mm | - | 15 W/m² | - |
| 1777336420 | 28.89° C | 70% | 1007.7 hPa | 0 mm | - | 19 W/m² | - |
| 1777336117 | 28.89° C | 70% | 1007.5 hPa | 0 mm | - | 18 W/m² | - |
| 1777335813 | 28.89° C | 70% | 1007.4 hPa | 0 mm | - | 18 W/m² | - |
| 1777335511 | 29.44° C | 69% | 1007.6 hPa | 0 mm | - | 27 W/m² | - |
| 1777335207 | 29.44° C | 69% | 1007.7 hPa | 0 mm | - | 35 W/m² | - |
* Rain latest hour (hover to see other rain measurements)
** Current wind speed in m/s (hover to see current wind gust speed)